Location: Jablonec nad Nisou
(50.7170°N, 15.1830°E)
Time: 20:13:27
(UTC+01:00)

ISS - Visible Passes

Search period start: 24 March 2019 00:00
Search period end: 03 April 2019 01:00
Orbit: 408 x 411 km, 51.6° (Epoch: 24 March)

Date Brightness Start Highest point End Pass type
(mag) Time Alt. Az. Time Alt. Az. Time Alt. Az.
24 Mar -3.3 19:32:33 10° SW 19:35:41 40° SSE 19:37:08 24° E visible
24 Mar -1.3 21:08:50 10° W 21:09:56 19° W 21:09:56 19° W visible
25 Mar -4.0 20:18:10 10° WSW 20:21:29 87° SSE 20:21:38 80° E visible
26 Mar -3.8 19:27:33 10° WSW 19:30:50 68° SSE 19:33:13 17° E visible
26 Mar -2.0 21:04:09 10° W 21:05:59 30° W 21:05:59 30° W visible
27 Mar -3.8 20:13:26 10° W 20:16:45 76° N 20:17:27 51° ENE visible
27 Mar -0.5 21:50:06 10° WNW 21:50:13 11° WNW 21:50:13 11° WNW visible
28 Mar -3.8 19:22:43 10° W 19:26:02 85° N 19:28:51 14° ENE visible
28 Mar -2.5 20:59:24 10° W 21:01:37 39° WNW 21:01:37 39° WNW visible
29 Mar -3.7 20:08:40 10° W 20:11:59 74° N 20:12:58 42° ENE visible
29 Mar -0.7 21:45:19 10° WNW 21:45:43 13° W 21:45:43 13° W visible
30 Mar -3.7 19:17:56 10° W 19:21:14 73° N 19:24:16 12° E visible
30 Mar -2.9 20:54:35 10° WNW 20:57:01 45° W 20:57:01 45° W visible
31 Mar -3.9 21:03:50 10° WNW 21:07:10 88° NNE 21:08:18 38° E visible
31 Mar -0.8 22:40:35 10° W 22:41:03 13° W 22:41:03 13° W visible
01 Apr -3.7 20:13:04 10° W 20:16:24 77° N 20:19:35 11° E visible
01 Apr -2.8 21:49:44 10° W 21:52:20 40° WSW 21:52:20 40° WSW visible
02 Apr -3.7 20:58:56 10° WNW 21:02:13 64° SSW 21:03:36 31° SE visible
02 Apr -0.8 22:36:08 10° W 22:36:21 11° WSW 22:36:21 11° WSW visible
